Flag for U.S.A. Weather past 2 weeks in Sierra Vista, Arizona, U.S.A.

Now
71 °F

Passing clouds.


Feels Like: 73 °F
Forecast: 57 / 84 °F
Wind: 2 mph from East

Location: Fort Huachuca

Current Time: Mar 29, 2015 at 9:51:14 AM

Latest Report: Mar 29, 2015 at 8:58 AM


Visibility: 8 mi

Pressure: 30.18 "Hg

Humidity: 15%

Dew point: 20 °F

Location of Sierra VistaLocation

Historic Weather in Sierra Vista — Graph

°F

Sierra Vista temperature yesterday

Maximum temperature yesterday: 85 °F (at 2:58 PM)
Minimum temperature yesterday: 51 °F (at 5:58 AM)
Average temperature yesterday: 70 °F

Past Weeks' High & Low Weather Summary

 TemperatureHumidityPressure
High85 °F (Mar 28, 2:58 PM)100% (Mar 18, 6:58 PM)30.26 "Hg (Mar 18, 6:58 PM)
Low44 °F (Mar 20, 5:58 AM)5% (Mar 28, 2:58 PM)29.91 "Hg (Mar 17, 3:55 PM)
Average61 °F37%30.10 "Hg
* Reported Mar 14 7:56 AM — Mar 29 7:58 AM, Sierra Vista, Weather by CustomWeather, © 2015

Note: Actual official high and low records may vary slightly from our data, if they occured in-between our weather recording intervals... More about our weather records

Advertising

Sierra Vista weather history for previous 24 hours

 ConditionsComfort  
Time TempWeatherWind HumidityBarometerVisibility
7:58 AM
Sun, Mar 29
66 °FSunny.2 mph17%30.18 "Hg8 mi
6:58 AM60 °FScattered clouds.3 mph21%30.18 "Hg6 mi
5:58 AM61 °FClear.10 mph19%30.14 "Hg10 mi
4:58 AM60 °FClear.8 mph21%30.12 "Hg10 mi
3:58 AM57 °FClear.8 mph24%30.11 "Hg10 mi
2:58 AM60 °FClear.6 mph21%30.11 "Hg10 mi
1:58 AM62 °FPassing clouds.8 mph19%30.10 "Hg10 mi
12:58 AM62 °FClear.8 mph20%30.13 "Hg10 mi
11:58 PM
Sat, Mar 28
63 °FClear.7 mph18%30.14 "Hg10 mi
10:58 PM65 °FClear.9 mph16%30.14 "Hg10 mi
9:58 PM65 °FClear.10 mph17%30.14 "Hg10 mi
8:58 PM67 °FClear.8 mph15%30.13 "Hg10 mi
7:58 PM69 °FClear.10 mph14%30.11 "Hg10 mi
6:58 PM69 °FClear.9 mph15%30.12 "Hg10 mi
5:58 PM79 °FSunny.10 mph8%30.10 "Hg10 mi
4:58 PM82 °FSunny.12 mph7%30.08 "Hg10 mi
3:58 PM83 °FSunny.12 mph6%30.06 "Hg10 mi
2:59 PM84 °FSunny.13 mph5%30.15 "Hg10 mi
2:58 PM85 °FSunny.14 mph5%30.07 "Hg10 mi
1:58 PM84 °FSunny.9 mph6%30.09 "Hg10 mi
12:58 PM82 °FSunny.5 mph7%30.13 "Hg10 mi
11:58 AM79 °FSunny.1 mph8%30.16 "Hg10 mi
10:58 AM76 °FSunny.2 mph9%30.17 "Hg10 mi
9:58 AM74 °FSunny.5 mph10%30.20 "Hg10 mi
Weather by CustomWeather, © 2015

See weather overviewHow to use our weather pages